Regional Weather Roundup
Issued by NWS Cleveland, OH

Home | Current Version | Previous Version | Graphics & Text | Print | Product List | Glossary On
Versions: 1 2 3 4 5 6 7 8 9 10 11 12 13 14 15 16 17 18 19 20 21 22 23 24 25 26 27 28 29 30 31 32 33 34 35 36 37 38 39 40 41 42 43 44 45 46 47 48 49 50
000
ASUS41 KCLE 080610
RWRCLE
OHIO REGIONAL WEATHER ROUNDUP
NATIONAL WEATHER SERVICE WILMINGTON, OH
100 AM EST MON FEB 08 2016

NOTE: "FAIR" INDICATES FEW OR NO CLOUDS BELOW 12,000 FEET WITH NO
SIGNIFICANT WEATHER AND/OR OBSTRUCTIONS TO VISIBILITY.

OHZ001>008-015>018-024>027-034-035-043-044-080700-
   NORTHWEST OHIO

CITY           SKY/WX    TMP DP  RH WIND       PRES   REMARKS
DEFIANCE       FAIR      39  31  72 SW5       29.71F
FINDLAY        MOCLDY    42  33  70 W9        29.71F
TOLEDO EXPRESS FAIR      40  31  70 W10       29.70F
TOLEDO EXEC    FAIR      41  32  70 SW7       29.71F
LIMA           CLOUDY    40  33  76 W8        29.71F
$$

OHZ009>014-019>023-028>033-038-089-080700-
   NORTHEAST OHIO

CITY           SKY/WX    TMP DP  RH WIND       PRES   REMARKS
CLE-HOPKINS    CLOUDY    45  24  43 SW10      29.77F
CLE-LAKEFRONT  CLOUDY    47  25  42 S10       29.74F
CUY CO. ARPT   NOT AVBL
LORAIN-ELYRIA  CLOUDY    44  27  51 SW13      29.74F
ASHTABULA      CLOUDY    41  24  51 S8        29.76F
AKRON-CANTON   CLOUDY    39  24  55 S9        29.75F
WOOSTER        CLOUDY    41  24  51 S8        29.75F
MANSFIELD      CLOUDY    41  30  65 SW13G23   29.73F
YOUNGSTOWN     MOCLDY    41  23  48 S8        29.76F
$$

OHZ042-051>053-060>062-070>072-077>081-080700-
  SOUTHWEST OHIO

CITY           SKY/WX    TMP DP  RH WIND       PRES   REMARKS
CINC-COVINGTON CLOUDY    45  23  42 SW5       29.74F
CINC-LUNKEN    CLOUDY    42  26  53 S7        29.76F
HAMILTON       CLOUDY    46  25  43 W7        29.75F
DAYTON         CLOUDY    43  28  55 W7        29.73F
WRIGHT-PAT AFB FAIR      44  24  43 SW6       29.72F
DAYTON GENERAL CLOUDY    45  23  42 S6        29.73F
WILMINGTON     CLOUDY    44  29  55 SW14      29.73F
$$

OHZ036-037-039>041-045>050-054>059-063>069-073>076-082>088-080700-
  CENTRAL AND SOUTHEAST OHIO

CITY           SKY/WX    TMP DP  RH WIND       PRES   REMARKS
COLUMBUS       CLOUDY    42  21  43 SW7       29.76F
OSU AIRPORT    LGT RAIN  42  28  57 SW10      29.75F
BOLTON FIELD   DRIZZLE   40  29  66 S6        29.76F
RICKENBACK AFB CLOUDY    38  26  61 SW3       29.76F
NEWARK         CLOUDY    37  25  61 SW3       29.75F
MARION         CLOUDY    41  31  67 SW8       29.74F
LANCASTER      CLOUDY    43  23  45 S7        29.77F
ZANESVILLE     FAIR      40  23  50 S6        29.77F
NEW PHILLY     FAIR      37  25  61 SE5       29.78F
$$



USA.gov is the U.S. government's official web portal to all federal, state and local government web resources and services.